This demonstration page uses our WeatherBlox Daily Observations layout. Learn more.

Left ArrowRight Arrow

38.88101, -77.10428

Hourly Observations for March 17, 2019

Temp ( °F °C ) Dew Point ( °F °C ) Humidity (%) Winds ( mph kmh ) Pressure ( in mb ) Visibility ( mi km ) Precip ( " mm )
12:52 am 00:52 Mostly Clear 43 6.1 20 -6.7 40 40 NNW 8 13 30.23 1024 10 16.0934 0 0
1:52 am 01:52 Mostly Clear 41 5 19 -7.2 41 41 NNW 9 15 30.23 1024 10 16.0934 0 0
2:52 am 02:52 Mostly Clear 40 4.4 19 -7.2 43 43 NW 6 9 30.24 1024 10 16.0934 0 0
3:52 am 03:52 Mostly Clear 39 3.9 20 -6.7 46 46 N 6 9 30.24 1024 10 16.0934 0 0
4:52 am 04:52 Mostly Clear 39 3.9 20 -6.7 46 46 NNW 7 11 30.24 1024 10 16.0934 0 0
5:52 am 05:52 Mostly Clear 37 2.8 19 -7.2 48 48 N 6 9 30.26 1025 10 16.0934 0 0
6:52 am 06:52 Mostly Clear 39 3.9 18 -7.8 43 43 W 5 7 30.28 1025 10 16.0934 0 0
7:52 am 07:52 Mostly Sunny 39 3.9 21 -6.1 48 48 W 6 9 30.29 1026 10 16.0934 0 0
8:52 am 08:52 Mostly Sunny 42 5.6 19 -7.2 40 40 W 7 11 30.3 1026 10 16.0934 0 0
9:52 am 09:52 Mostly Sunny 43 6.1 17 -8.3 35 35 NNW 9 15 30.3 1026 10 16.0934 0 0
10:52 am 10:52 Mostly Sunny 45 7.2 17 -8.3 33 33 W 12 19 30.29 1026 10 16.0934 0 0
11:52 am 11:52 Mostly Sunny 47 8.3 16 -8.9 29 29 W 13 20 30.27 1025 10 16.0934 0 0
12:52 pm 12:52 Mostly Sunny 49 9.4 17 -8.3 28 28 WNW 13 20 30.26 1025 10 16.0934 0 0
1:52 pm 13:52 Mostly Sunny 51 10.6 16 -8.9 25 25 WSW 14 22 30.23 1024 10 16.0934 0 0
2:52 pm 14:52 Partly Cloudy 52 11.1 16 -8.9 24 24 W 12 19 30.19 1022 10 16.0934 0 0
3:52 pm 15:52 Mostly Sunny 52 11.1 14 -10 22 22 VRB 6 9 30.16 1022 10 16.0934 0 0
4:52 pm 16:52 Partly Cloudy 53 11.7 15 -9.4 22 22 WNW 13 20 30.16 1021 10 16.0934 0 0
5:52 pm 17:52 Partly Cloudy 53 11.7 13 -10.6 20 20 WSW 7 11 30.14 1021 10 16.0934 0 0
6:52 pm 18:52 Mostly Sunny 51 10.6 13 -10.6 22 22 W 5 7 30.16 1021 10 16.0934 0 0
7:52 pm 19:52 Mostly Clear 50 10 24 -4.4 36 36 N 3 6 30.16 1022 10 16.0934 0 0
8:52 pm 20:52 Mostly Clear 48 8.9 20 -6.7 33 33 NNE 8 13 30.19 1023 10 16.0934 0 0
9:52 pm 21:52 Partly Cloudy 46 7.8 20 -6.7 35 35 NNE 9 15 30.21 1023 10 16.0934 0 0
10:52 pm 22:52 Mostly Cloudy 44 6.7 25 -3.9 47 47 ENE 7 11 30.23 1024 10 16.0934 0 0
11:52 pm 23:52 Mostly Cloudy 44 6.7 27 -2.8 51 51 ENE 6 9 30.24 1024 10 16.0934 0 0

Powered by AerisWeather